Regional Weather Roundup
Issued by NWS Albany, NY

Home | Current Version | Previous Version | Graphics & Text | Print | Product List | Glossary Off
Versions: 1 2 3 4 5 6 7 8 9 10 11 12 13 14 15 16 17 18 19 20 21 22 23 24 25 26 27 28 29 30 31 32 33 34 35 36 37 38 39 40 41 42 43 44 45 46 47 48 49 50

000
ASUS41 KALY 241610
RWRALY

NEW YORK STATE HOURLY WEATHER ROUNDUP
NATIONAL WEATHER SERVICE ALBANY NY
1100 AM EST FRI NOV 24 2017

NOTE: "FAIR" INDICATES FEW OR NO CLOUDS BELOW 12,000 FEET WITH NO
SIGNIFICANT WEATHER AND/OR NO OBSTRUCTIONS TO VISIBILITY.

NYZ032-033-038>043-046>054-057>066-NYZ062>081-082-084-241700-
EAST


CITY           SKY/WX    TMP DP  RH WIND       PRES   REMARKS
ALBANY         MOSUNNY   41  24  51 SE5       30.00F
GLENS FALLS    CLOUDY    37  26  64 S8        29.98F WCI  31
POUGHKEEPSIE   SUNNY     42  23  46 S6        30.02F
NEWBURGH       SUNNY     41  25  52 W7        30.03F
MONTGOMERY     SUNNY     42  25  50 S6        30.01F
WHITE PLAINS   SUNNY     44  23  43 NW6       30.02F
ISLIP          MOSUNNY   46  25  43 S3        30.04F
NEW YORK CITY  SUNNY     46  23  40 N3        30.04F
CENTRAL PARK   SUNNY     44  23  43 VRB3      30.06F
$$

NYZ005>009-017-018-044>046-055-056-241700-
CENTRAL


CITY           SKY/WX    TMP DP  RH WIND       PRES   REMARKS
FULTON         SUNNY     45  29  53 S13       29.91F
SYRACUSE       MOSUNNY   44  27  51 S12       29.92F
ROME           SUNNY     44  31  60 S7        29.95F
ELMIRA         SUNNY     45  23  42 SW12      29.93F
BINGHAMTON     SUNNY     39  21  48 S9        29.93F WCI  33
MONTICELLO     SUNNY     40  22  48 W6        29.99F
$$

NYZ026>034-041>043-087-241700-
NORTH


CITY           SKY/WX    TMP DP  RH WIND       PRES   REMARKS
WATERTOWN      SUNNY     44  31  60 S14G22    29.87F
FORT DRUM      NOT AVBL
OGDENSBURG     CLOUDY    41  32  70 S12       29.84F
MASSENA        PTSUNNY   43  34  70 SW14      29.86F
SARANAC LAKE   CLOUDY    33  29  85 S14       29.83F WCI  23
PLATTSBURGH    CLOUDY    41  29  62 S7        29.89F
$$

NYZ001>004-010>016-019>021-085-241700-
WEST


CITY           SKY/WX    TMP DP  RH WIND       PRES   REMARKS
NIAGARA FALLS  SUNNY     47  30  51 SW21      29.85F
BUFFALO        MOSUNNY   45  25  45 SW21G29   29.85F
DUNKIRK        SUNNY     46  25  43 SW18G26   29.88F
JAMESTOWN      SUNNY     39  23  52 S16G25    29.89F WCI  30
WELLSVILLE     SUNNY     42  22  44 SW12G22   29.90F
ROCHESTER      MOSUNNY   43  26  51 SW12      29.87F
PENN YAN       SUNNY     42  22  44 S14       29.91F
$$

             KEY
       WCI = WIND CHILL INDEX
       VSB = VISIBILITY
       HX  = HEAT INDEX
$$



USA.gov is the U.S. government's official web portal to all federal, state and local government web resources and services.